EW3623 Weather Reports


Display with metric or nautical units.
time (UTC)temp
F
wind
direction
speed
MPH
gust
MPH
rain 1hr
in
rain 24hr
in
rain mn
in
humidity
%
barometer
mb
20240617113820 79 360 5.0 13.0 0.00 0.00 0.00 78 1013.1
20240617113329 78 192 5.0 13.0 0.00 0.00 0.00 79 1013.0
20240617113051 78 360 7.0 13.0 0.00 0.00 0.00 79 1011.4
20240617112840 78 192 6.0 9.0 0.00 0.00 0.00 79 1012.9
20240617112318 78 194 4.0 12.0 0.00 0.00 0.00 79 1012.9
20240617111823 78 360 5.0 12.0 0.00 0.00 0.00 80 1012.8
20240617111536 77 360 3.0 11.0 0.00 0.00 0.00 79 1011.2
20240617111327 78 192 5.0 11.0 0.00 0.00 0.00 79 1012.8
20240617110836 78 189 5.0 10.0 0.00 0.00 0.00 80 1012.7
20240617110330 78 360 5.0 11.0 0.00 0.00 0.00 80 1012.6
20240617110011 77 182 5.0 11.0 0.00 0.00 0.00 79 1011.0
20240617105814 78 167 5.0 11.0 0.00 0.00 0.00 79 1012.5
20240617105346 78 179 5.0 7.0 0.00 0.00 0.00 80 1012.5
20240617104843 78 190 5.0 8.0 0.00 0.00 0.00 80 1012.4
20240617104527 77 178 2.0 8.0 0.00 0.00 0.00 79 1010.9
20240617104328 78 183 4.0 8.0 0.00 0.00 0.00 79 1012.3
20240617103832 78 360 4.0 9.0 0.00 0.00 0.00 79 1012.2
20240617103326 78 169 4.0 9.0 0.00 0.00 0.00 79 1012.2
20240617103016 77 186 3.0 9.0 0.00 0.00 0.00 79 1010.6
20240617102829 78 360 3.0 9.0 0.00 0.00 0.00 79 1012.1
20240617102337 78 198 5.0 8.0 0.00 0.00 0.00 79 1012.0
20240617101818 78 360 5.0 9.0 0.00 0.00 0.00 79 1012.0
20240617101521 77 187 3.0 8.0 0.00 0.00 0.00 79 1010.4
20240617101326 78 360 4.0 8.0 0.00 0.00 0.00 79 1011.9
20240617100832 77 194 4.0 7.0 0.00 0.00 0.00 78 1011.9
20240617100338 77 167 5.0 9.0 0.00 0.00 0.00 78 1011.8
20240617100107 77 360 4.0 9.0 0.00 0.00 0.00 78 1010.3
20240617095829 77 238 3.0 9.0 0.00 0.00 0.00 78 1011.8
20240617095317 77 360 3.0 7.0 0.00 0.00 0.00 78 1011.7
20240617094842 77 196 4.0 7.0 0.00 0.00 0.00 78 1011.7
20240617094559 77 360 4.0 6.0 0.00 0.00 0.00 78 1010.2
20240617094313 77 233 3.0 5.0 0.00 0.00 0.00 78 1011.7
20240617093813 77 182 2.0 5.0 0.00 0.00 0.00 77 1011.7
20240617093318 77 188 2.0 5.0 0.00 0.00 0.00 77 1011.7
20240617093047 77 189 3.0 5.0 0.00 0.00 0.00 77 1010.2
20240617092845 77 191 2.0 5.0 0.00 0.00 0.00 77 1011.8
20240617092341 78 201 2.0 5.0 0.00 0.00 0.00 77 1011.7
20240617091816 78 193 2.0 5.0 0.00 0.00 0.00 76 1011.7
20240617091523 77 213 1.0 5.0 0.00 0.00 0.00 76 1010.2
20240617091321 78 198 2.0 5.0 0.00 0.00 0.00 76 1011.6
20240617090811 78 219 2.0 5.0 0.00 0.00 0.00 76 1011.6
20240617090321 78 213 2.0 6.0 0.00 0.00 0.00 75 1011.7
20240617090011 78 214 2.0 6.0 0.00 0.00 0.00 75 1010.1
20240617085826 78 200 4.0 6.0 0.00 0.00 0.00 75 1011.7
20240617085341 78 192 3.0 6.0 0.00 0.00 0.00 75 1011.6
20240617084846 78 217 4.0 6.0 0.00 0.00 0.00 74 1011.6
20240617084526 78 360 2.0 7.0 0.00 0.00 0.00 74 1010.1
20240617084321 78 194 4.0 7.0 0.00 0.00 0.00 74 1011.6
20240617083830 79 235 4.0 9.0 0.00 0.00 0.00 74 1011.6
20240617083324 79 178 5.0 9.0 0.00 0.00 0.00 74 1011.6
20240617083006 78 188 3.0 8.0 0.00 0.00 0.00 74 1010.1
20240617082828 79 213 4.0 10.0 0.00 0.00 0.00 73 1011.6
20240617082332 79 198 5.0 10.0 0.00 0.00 0.00 73 1011.6
20240617081848 79 192 3.0 11.0 0.00 0.00 0.00 73 1011.7
20240617081550 78 197 3.0 11.0 0.00 0.00 0.00 73 1010.3
20240617081318 79 360 4.0 11.0 0.00 0.00 0.00 72 1011.7
20240617080823 79 360 5.0 10.0 0.00 0.00 0.00 72 1011.8
20240617080352 79 209 4.0 10.0 0.00 0.00 0.00 72 1011.8
20240617080016 79 360 4.0 10.0 0.00 0.00 0.00 72 1010.4
20240617075813 79 216 4.0 8.0 0.00 0.00 0.00 72 1011.8
20240617075316 79 198 5.0 8.0 0.00 0.00 0.00 71 1011.8
20240617074841 80 223 5.0 11.0 0.00 0.00 0.00 71 1011.9
20240617074506 79 226 4.0 11.0 0.00 0.00 0.00 71 1010.4
20240617074316 80 211 5.0 11.0 0.00 0.00 0.00 71 1011.9
20240617073820 80 183 4.0 11.0 0.00 0.00 0.00 71 1012.1
20240617073330 80 192 6.0 11.0 0.00 0.00 0.00 71 1012.1
20240617073104 79 360 5.0 10.0 0.00 0.00 0.00 71 1010.6
20240617072822 80 213 6.0 10.0 0.00 0.00 0.00 71 1012.1
20240617072324 80 222 5.0 11.0 0.00 0.00 0.00 71 1012.1
20240617071832 79 194 4.0 11.0 0.00 0.00 0.00 71 1012.1
20240617071546 79 360 4.0 9.0 0.00 0.00 0.00 71 1010.6
20240617071341 79 219 4.0 9.0 0.00 0.00 0.00 71 1012.1
20240617070816 79 203 4.0 9.0 0.00 0.00 0.00 72 1012.1
20240617070329 78 232 4.0 8.0 0.00 0.00 0.00 72 1012.1
20240617070046 78 185 4.0 8.0 0.00 0.00 0.00 72 1010.6
20240617065837 78 360 5.0 8.0 0.00 0.00 0.00 72 1012.0
20240617065348 78 200 4.0 7.0 0.00 0.00 0.00 72 1012.0
20240617064853 78 212 3.0 8.0 0.00 0.00 0.00 72 1012.1
20240617064548 78 243 3.0 8.0 0.00 0.00 0.00 72 1010.6
20240617064340 78 193 4.0 10.0 0.00 0.00 0.00 72 1012.0
20240617063829 78 189 6.0 10.0 0.00 0.00 0.00 71 1012.0
20240617063315 78 230 4.0 8.0 0.00 0.00 0.00 71 1012.0
20240617063037 77 188 4.0 8.0 0.00 0.00 0.00 71 1010.6
20240617062840 78 360 3.0 8.0 0.00 0.00 0.00 71 1012.0
20240617062323 78 197 4.0 7.0 0.00 0.00 0.00 70 1012.0
20240617061847 78 198 5.0 10.0 0.00 0.00 0.00 70 1012.0
20240617061552 78 206 5.0 10.0 0.00 0.00 0.00 70 1010.5
20240617061337 78 360 4.0 10.0 0.00 0.00 0.00 70 1012.0
20240617060813 78 169 5.0 10.0 0.00 0.00 0.00 69 1012.0
20240617060326 78 172 5.0 8.0 0.00 0.00 0.00 69 1012.0
20240617060048 78 360 4.0 7.0 0.00 0.00 0.00 68 1010.5
20240617055816 78 181 4.0 7.0 0.00 0.00 0.00 68 1012.0
20240617055352 78 360 5.0 8.0 0.00 0.00 0.00 68 1012.0
20240617054819 78 183 5.0 8.0 0.00 0.00 0.00 68 1012.0
20240617054511 78 155 4.0 8.0 0.00 0.00 0.00 68 1010.6
20240617054343 78 360 4.0 8.0 0.00 0.00 0.00 68 1012.0
20240617053827 78 360 4.0 7.0 0.00 0.00 0.00 68 1012.0
20240617053348 78 180 3.0 7.0 0.00 0.00 0.00 68 1012.0
20240617053029 77 159 2.0 5.0 0.00 0.00 0.00 68 1010.5
20240617052848 77 161 3.0 5.0 0.00 0.00 0.00 68 1012.0
20240617052332 77 179 3.0 6.0 0.00 0.00 0.00 68 1012.0
20240617051819 77 157 4.0 6.0 0.00 0.00 0.00 68 1012.0
20240617051558 77 175 2.0 6.0 0.00 0.00 0.00 68 1010.6
20240617051344 77 178 3.0 6.0 0.00 0.00 0.00 68 1012.0
20240617050819 77 167 4.0 6.0 0.00 0.00 0.00 69 1012.1
20240617050349 77 169 3.0 5.0 0.00 0.00 0.00 69 1012.1
20240617050021 76 171 2.0 5.0 0.00 0.00 0.00 69 1010.7
20240617045829 77 171 2.0 4.0 0.00 0.00 0.00 69 1012.1
20240617045335 77 163 2.0 5.0 0.00 0.00 0.00 69 1012.1
20240617044841 77 142 3.0 5.0 0.00 0.00 0.00 70 1012.1
20240617044619 76 163 3.0 5.0 0.00 0.00 0.00 70 1010.7
20240617044346 76 163 3.0 5.0 0.00 0.00 0.00 70 1012.2
20240617043821 76 163 2.0 4.0 0.00 0.00 0.00 70 1012.2
20240617043320 76 157 2.0 4.0 0.00 0.00 0.00 71 1012.0
20240617043052 76 163 2.0 4.0 0.00 0.00 0.00 71 1010.6
20240617042820 76 160 2.0 4.0 0.00 0.00 0.00 71 1012.1
20240617042359 76 159 2.0 4.0 0.00 0.00 0.00 71 1012.1
20240617041826 76 156 2.0 5.0 0.00 0.00 0.00 71 1012.0
20240617041534 76 155 2.0 5.0 0.00 0.00 0.00 71 1010.5
20240617041330 76 148 2.0 4.0 0.00 0.00 0.00 72 1011.9
20240617040822 76 150 2.0 4.0 0.00 0.00 0.00 72 1011.9
20240617040328 76 150 2.0 4.0 0.00 0.00 0.00 71 1011.8
20240617040022 76 150 2.0 4.0 0.00 0.00 0.00 71 1010.4
20240617035815 76 150 2.0 4.0 0.00 0.00 0.00 71 1011.8
20240617035340 76 150 2.0 3.0 0.00 0.00 0.00 71 1011.7
20240617034845 76 150 2.0 4.0 0.00 0.00 0.00 71 1011.7
20240617034510 76 150 1.0 4.0 0.00 0.00 0.00 71 1010.2
20240617034320 76 148 2.0 4.0 0.00 0.00 0.00 71 1011.7
20240617033826 76 144 2.0 3.0 0.00 0.00 0.00 71 1011.6
20240617033332 76 144 2.0 3.0 0.00 0.00 0.00 71 1011.5
20240617033004 76 145 1.0 4.0 0.00 0.00 0.00 71 1010.1
20240617032902 76 145 2.0 4.0 0.00 0.00 0.00 71 1011.5
20240617032333 77 145 2.0 4.0 0.00 0.00 0.00 71 1011.4
20240617031836 77 178 2.0 3.0 0.00 0.00 0.00 70 1011.4
20240617031512 76 179 1.0 3.0 0.00 0.00 0.00 70 1010.0
20240617031339 77 179 1.0 3.0 0.00 0.00 0.00 70 1011.4
20240617030823 77 234 0.0 0.0 0.00 0.00 0.00 69 1011.3
20240617030329 77 234 0.0 0.0 0.00 0.00 0.00 69 1011.3
20240617030049 77 234 0.0 0.0 0.00 0.00 0.00 69 1009.9
20240617025837 77 234 0.0 0.0 0.00 0.00 0.00 68 1011.2
20240617025329 77 234 0.0 0.0 0.00 0.00 0.00 68 1011.1
20240617024810 78 234 0.0 0.0 0.00 0.00 0.00 67 1011.1
20240617024537 77 234 0.0 1.0 0.00 0.00 0.00 67 1009.6
20240617024320 78 234 0.0 1.0 0.00 0.00 0.00 67 1011.0
20240617023814 78 234 0.0 1.0 0.00 0.00 0.00 66 1010.9
20240617023342 78 234 0.0 1.0 0.00 0.00 0.00 66 1010.8
20240617023103 78 234 0.0 1.0 0.00 0.00 0.00 65 1009.3
20240617022846 79 236 0.0 0.0 0.00 0.00 0.00 65 1010.7
20240617022318 79 236 0.0 0.0 0.00 0.00 0.00 64 1010.6
20240617021825 79 236 0.0 0.0 0.00 0.00 0.00 64 1010.5
20240617021548 78 236 0.0 2.0 0.00 0.00 0.00 64 1009.0
20240617021315 79 235 0.0 2.0 0.00 0.00 0.00 64 1010.5
20240617020817 79 236 1.0 2.0 0.00 0.00 0.00 64 1010.4
20240617020323 79 236 0.0 1.0 0.00 0.00 0.00 63 1010.5
20240617020116 79 236 0.0 2.0 0.00 0.00 0.00 62 1008.9
20240617015836 80 236 0.0 2.0 0.00 0.00 0.00 62 1010.3
20240617015332 80 236 1.0 6.0 0.00 0.00 0.00 62 1010.2
20240617014821 80 235 2.0 6.0 0.00 0.00 0.00 62 1010.1
20240617014519 79 229 2.0 6.0 0.00 0.00 0.00 62 1008.7
20240617014324 80 264 2.0 6.0 0.00 0.00 0.00 62 1010.1
20240617013831 80 231 2.0 5.0 0.00 0.00 0.00 62 1010.1
20240617013326 80 236 2.0 6.0 0.00 0.00 0.00 62 1010.1
20240617013020 79 198 3.0 6.0 0.00 0.00 0.00 62 1008.6
20240617012829 80 237 4.0 7.0 0.00 0.00 0.00 62 1010.0
20240617012315 80 217 3.0 10.0 0.00 0.00 0.00 62 1010.0
20240617011843 80 360 4.0 10.0 0.00 0.00 0.00 62 1009.9
20240617011601 79 215 5.0 10.0 0.00 0.00 0.00 63 1008.4
20240617011318 79 360 7.0 10.0 0.00 0.00 0.00 63 1009.8
20240617010823 79 169 5.0 9.0 0.00 0.00 0.00 64 1009.9
20240617010335 79 215 5.0 9.0 0.00 0.00 0.00 65 1009.8
20240617010102 78 193 4.0 8.0 0.00 0.00 0.00 66 1008.4
20240617005825 79 219 4.0 8.0 0.00 0.00 0.00 66 1010.0
20240617005333 78 360 5.0 8.0 0.00 0.00 0.00 66 1010.1
20240617004815 78 360 5.0 8.0 0.00 0.00 0.00 66 1010.1
20240617004541 78 176 5.0 8.0 0.00 0.00 0.00 66 1008.6
20240617004333 78 194 5.0 9.0 0.00 0.00 0.00 67 1010.1
20240617003859 78 231 3.0 9.0 0.00 0.00 0.00 67 1010.5
20240617003317 78 248 6.0 9.0 0.00 0.00 0.00 67 1010.6
20240617003012 77 251 5.0 8.0 0.00 0.00 0.00 67 1009.1
20240617002842 78 277 6.0 9.0 0.00 0.00 0.00 67 1010.6
20240617002329 78 286 4.0 10.0 0.00 0.00 0.00 67 1010.3
20240617001820 78 257 3.0 9.0 0.00 0.00 0.00 68 1010.3
20240617001556 77 279 4.0 9.0 0.00 0.00 0.00 68 1008.9
20240617001345 78 284 4.0 9.0 0.00 0.00 0.00 68 1010.3
20240617000821 78 313 5.0 9.0 0.00 0.00 0.00 68 1010.2
20240617000350 78 294 5.0 9.0 0.00 0.00 0.00 69 1010.3
20240617000028 77 292 2.0 6.0 0.00 0.00 0.00 69 1008.9
20240616235816 78 257 1.0 8.0 0.00 0.00 0.00 69 1010.2
20240616235337 78 255 4.0 10.0 0.00 0.00 0.00 70 1010.3
20240616234832 78 266 3.0 10.0 0.00 0.00 0.00 70 1010.6
20240616234517 77 267 3.0 11.0 0.00 0.00 0.00 70 1009.1
20240616234314 78 238 5.0 11.0 0.00 0.00 0.00 70 1010.6
20240616233840 79 282 4.0 11.0 0.00 0.00 0.00 68 1010.6
20240616233327 79 292 5.0 10.0 0.00 0.00 0.00 65 1010.3
20240616233050 79 278 4.0 10.0 0.00 0.00 0.00 64 1008.8
20240616232827 80 267 5.0 10.0 0.00 0.00 0.00 63 1010.3
20240616232332 80 360 6.0 19.0 0.00 0.00 0.00 61 1010.3
20240616231819 81 258 8.0 19.0 0.00 0.00 0.00 60 1010.5
20240616231532 81 244 8.0 19.0 0.00 0.00 0.00 59 1009.0
20240616231352 81 237 10.0 19.0 0.00 0.00 0.00 58 1010.7
20240616230819 82 252 7.0 17.0 0.00 0.00 0.00 56 1010.7
20240616230343 82 240 11.0 23.0 0.00 0.00 0.00 55 1010.7
20240616230044 82 360 7.0 23.0 0.00 0.00 0.00 54 1009.2
20240616225840 82 360 12.0 23.0 0.00 0.00 0.00 53 1010.7
20240616225351 83 230 6.0 17.0 0.00 0.00 0.00 52 1010.6
20240616224838 83 252 7.0 21.0 0.00 0.00 0.00 52 1010.6
20240616224604 82 296 8.0 21.0 0.00 0.00 0.00 51 1009.1
20240616224330 83 285 11.0 21.0 0.00 0.00 0.00 51 1010.6
20240616223832 83 283 9.0 34.0 0.00 0.00 0.00 51 1010.6
20240616223321 83 279 12.0 34.0 0.00 0.00 0.00 51 1010.6
20240616223049 83 257 14.0 34.0 0.00 0.00 0.00 50 1009.2
20240616222843 84 360 10.0 25.0 0.00 0.00 0.00 52 1010.6
20240616222317 85 263 12.0 32.0 0.00 0.00 0.00 51 1010.3
20240616221819 86 299 17.0 32.0 0.00 0.00 0.00 50 1010.5
20240616221515 88 302 15.0 31.0 0.00 0.00 0.00 50 1008.8
20240616221324 90 360 13.0 28.0 0.00 0.00 0.00 49 1010.3
20240616220850 91 217 8.0 20.0 0.00 0.00 0.00 49 1009.9
20240616220341 91 297 9.0 22.0 0.00 0.00 0.00 48 1010.0
20240616220105 91 228 8.0 22.0 0.00 0.00 0.00 49 1008.4
20240616215848 91 262 5.0 22.0 0.00 0.00 0.00 49 1009.8
20240616215325 91 360 10.0 18.0 0.00 0.00 0.00 48 1009.8
20240616214848 91 240 6.0 18.0 0.00 0.00 0.00 49 1009.8
20240616214509 91 218 9.0 26.0 0.00 0.00 0.00 48 1008.2
20240616214336 92 207 11.0 26.0 0.00 0.00 0.00 48 1009.7
20240616213823 92 360 12.0 26.0 0.00 0.00 0.00 47 1009.6
20240616213335 92 360 12.0 24.0 0.00 0.00 0.00 47 1009.5
20240616213056 92 360 11.0 24.0 0.00 0.00 0.00 47 1007.9
20240616212846 92 360 12.0 24.0 0.00 0.00 0.00 47 1009.5
20240616212320 93 196 11.0 20.0 0.00 0.00 0.00 47 1009.4
20240616211850 92 216 12.0 21.0 0.00 0.00 0.00 47 1009.4
20240616211534 92 178 9.0 25.0 0.00 0.00 0.00 47 1007.8
20240616211315 92 229 11.0 25.0 0.00 0.00 0.00 47 1009.3
20240616210842 92 214 10.0 25.0 0.00 0.00 0.00 48 1009.5
20240616210343 91 187 12.0 23.0 0.00 0.00 0.00 49 1009.4
20240616210004 91 360 12.0 22.0 0.00 0.00 0.00 48 1007.8
20240616205821 92 184 14.0 26.0 0.00 0.00 0.00 49 1009.1
20240616205328 91 360 14.0 26.0 0.00 0.00 0.00 49 1009.1
20240616204846 92 164 12.0 26.0 0.00 0.00 0.00 49 1009.1
20240616204551 91 191 11.0 26.0 0.00 0.00 0.00 48 1007.7
20240616204314 91 189 12.0 26.0 0.00 0.00 0.00 48 1009.1
20240616203838 91 217 12.0 23.0 0.00 0.00 0.00 48 1009.3
20240616203329 92 189 13.0 22.0 0.00 0.00 0.00 47 1009.4
20240616203021 92 196 13.0 22.0 0.00 0.00 0.00 48 1008.1
20240616202816 92 184 11.0 18.0 0.00 0.00 0.00 49 1009.6
20240616202342 93 192 8.0 23.0 0.00 0.00 0.00 50 1009.6
20240616201843 92 173 11.0 23.0 0.00 0.00 0.00 49 1009.6
20240616201513 91 186 7.0 20.0 0.00 0.00 0.00 50 1008.1
20240616201318 91 207 9.0 20.0 0.00 0.00 0.00 50 1009.6
20240616200846 91 195 12.0 21.0 0.00 0.00 0.00 49 1009.8
20240616200352 91 196 9.0 28.0 0.00 0.00 0.00 49 1009.9
20240616200031 91 360 13.0 28.0 0.00 0.00 0.00 49 1008.4
20240616195838 92 191 10.0 28.0 0.00 0.00 0.00 49 1009.9
20240616195319 91 219 12.0 23.0 0.00 0.00 0.00 49 1010.0
20240616194817 91 215 13.0 27.0 0.00 0.00 0.00 48 1010.0
20240616194605 91 202 10.0 27.0 0.00 0.00 0.00 49 1008.5
20240616194353 91 196 14.0 27.0 0.00 0.00 0.00 49 1009.9
20240616193901 91 190 14.0 23.0 0.00 0.00 0.00 49 1010.0
20240616193316 91 234 10.0 23.0 0.00 0.00 0.00 49 1010.0
20240616193017 91 360 14.0 23.0 0.00 0.00 0.00 48 1008.5
20240616192824 91 360 15.0 23.0 0.00 0.00 0.00 48 1010.0
20240616192335 91 360 8.0 24.0 0.00 0.00 0.00 49 1010.0
20240616191830 91 233 8.0 24.0 0.00 0.00 0.00 50 1010.0
20240616191511 90 192 15.0 24.0 0.00 0.00 0.00 49 1008.7
20240616191315 91 196 12.0 22.0 0.00 0.00 0.00 49 1010.2
20240616190813 91 360 9.0 27.0 0.00 0.00 0.00 50 1010.2
20240616190343 91 360 11.0 20.0 0.00 0.00 0.00 50 1010.2
20240616190106 90 168 9.0 24.0 0.00 0.00 0.00 50 1008.7
20240616185837 90 360 7.0 25.0 0.00 0.00 0.00 51 1010.0
20240616185324 90 180 13.0 25.0 0.00 0.00 0.00 50 1010.2
20240616184850 90 360 10.0 19.0 0.00 0.00 0.00 51 1010.3
20240616184520 90 144 12.0 19.0 0.00 0.00 0.00 51 1008.9
20240616184318 90 360 10.0 19.0 0.00 0.00 0.00 52 1010.3
20240616183823 89 360 11.0 23.0 0.00 0.00 0.00 53 1010.4
20240616183332 89 180 10.0 23.0 0.00 0.00 0.00 54 1010.4
20240616183057 89 199 13.0 23.0 0.00 0.00 0.00 53 1009.0
20240616182900 89 360 12.0 27.0 0.00 0.00 0.00 53 1010.5
20240616182345 89 171 11.0 27.0 0.00 0.00 0.00 54 1010.7
20240616181820 89 186 13.0 23.0 0.00 0.00 0.00 53 1010.8
20240616181528 88 148 9.0 23.0 0.00 0.00 0.00 54 1009.4
20240616181325 89 194 13.0 23.0 0.00 0.00 0.00 54 1010.8
20240616180829 89 360 13.0 23.0 0.00 0.00 0.00 54 1010.9
20240616180313 89 172 8.0 17.0 0.00 0.00 0.00 54 1011.0
20240616180026 88 219 5.0 15.0 0.00 0.00 0.00 54 1009.8
20240616175818 89 360 9.0 15.0 0.00 0.00 0.00 55 1011.2
20240616175346 88 198 9.0 19.0 0.00 0.00 0.00 55 1011.4
20240616174817 88 169 10.0 19.0 0.00 0.00 0.00 54 1011.3
20240616174511 88 186 8.0 19.0 0.00 0.00 0.00 54 1010.1
20240616174340 88 186 8.0 15.0 0.00 0.00 0.00 55 1011.5
20240616173848 88 225 7.0 17.0 0.00 0.00 0.00 56 1011.5
20240616173316 88 360 9.0 17.0 0.00 0.00 0.00 54 1011.6
20240616173052 87 115 6.0 18.0 0.00 0.00 0.00 56 1010.3
20240616172830 87 178 9.0 18.0 0.00 0.00 0.00 55 1011.7
20240616172325 87 360 11.0 19.0 0.00 0.00 0.00 55 1011.9
20240616171830 87 181 9.0 20.0 0.00 0.00 0.00 54 1011.8
20240616171531 86 172 10.0 20.0 0.00 0.00 0.00 54 1010.5
20240616171315 87 360 9.0 19.0 0.00 0.00 0.00 53 1011.8
20240616170842 86 164 7.0 17.0 0.00 0.00 0.00 53 1011.9
20240616170338 86 211 10.0 19.0 0.00 0.00 0.00 54 1012.0
20240616170005 85 360 7.0 19.0 0.00 0.00 0.00 54 1010.5
20240616165821 86 196 9.0 19.0 0.00 0.00 0.00 55 1011.9
20240616165326 85 216 10.0 19.0 0.00 0.00 0.00 54 1011.8
20240616164840 85 179 12.0 22.0 0.00 0.00 0.00 54 1011.9
20240616164605 85 176 10.0 22.0 0.00 0.00 0.00 53 1010.7
20240616164343 85 198 12.0 22.0 0.00 0.00 0.00 53 1012.0
20240616163828 85 157 10.0 17.0 0.00 0.00 0.00 53 1012.1
20240616163321 85 206 8.0 16.0 0.00 0.00 0.00 53 1012.0
20240616163012 84 360 7.0 21.0 0.00 0.00 0.00 53 1010.6
20240616162812 84 360 8.0 21.0 0.00 0.00 0.00 53 1011.9
20240616162323 84 213 11.0 21.0 0.00 0.00 0.00 54 1011.9
20240616161815 83 360 13.0 19.0 0.00 0.00 0.00 53 1012.1
20240616161510 83 360 9.0 18.0 0.00 0.00 0.00 53 1010.8
20240616161323 83 225 9.0 18.0 0.00 0.00 0.00 53 1012.2
20240616160827 84 190 13.0 18.0 0.00 0.00 0.00 53 1012.2
20240616160339 83 360 7.0 18.0 0.00 0.00 0.00 53 1012.2
20240616160004 83 213 6.0 16.0 0.00 0.00 0.00 53 1010.9
20240616155814 83 161 7.0 16.0 0.00 0.00 0.00 53 1012.1
20240616155337 83 360 8.0 16.0 0.00 0.00 0.00 52 1012.2
20240616154820 82 207 8.0 21.0 0.00 0.00 0.00 53 1012.2
20240616154558 81 203 13.0 21.0 0.00 0.00 0.00 53 1011.0
20240616154329 82 191 10.0 17.0 0.00 0.00 0.00 53 1012.3
20240616153824 82 360 10.0 19.0 0.00 0.00 0.00 53 1012.5
20240616153333 82 211 11.0 20.0 0.00 0.00 0.00 52 1012.5
20240616153034 82 360 6.0 16.0 0.00 0.00 0.00 52 1011.2
20240616152820 82 360 7.0 16.0 0.00 0.00 0.00 51 1012.4
20240616152315 82 360 8.0 15.0 0.00 0.00 0.00 52 1012.5
20240616151839 81 360 8.0 17.0 0.00 0.00 0.00 53 1012.5
20240616151605 80 196 4.0 17.0 0.00 0.00 0.00 53 1011.3
20240616151355 81 360 6.0 17.0 0.00 0.00 0.00 53 1012.7
20240616150829 80 360 10.0 21.0 0.00 0.00 0.00 52 1012.7
20240616150328 80 360 9.0 21.0 0.00 0.00 0.00 52 1012.5
20240616150031 80 200 10.0 21.0 0.00 0.00 0.00 52 1011.4
20240616145853 80 192 10.0 17.0 0.00 0.00 0.00 52 1012.7
20240616145320 80 360 8.0 17.0 0.00 0.00 0.00 53 1012.6
20240616144821 80 360 9.0 16.0 0.00 0.00 0.00 53 1012.8
20240616144509 79 360 6.0 16.0 0.00 0.00 0.00 53 1011.6
20240616144329 79 360 9.0 16.0 0.00 0.00 0.00 53 1012.9
20240616143820 78 360 8.0 15.0 0.00 0.00 0.00 53 1012.9
20240616143323 78 169 8.0 19.0 0.00 0.00 0.00 53 1012.9
20240616143014 77 173 9.0 19.0 0.00 0.00 0.00 53 1011.6
20240616142833 78 189 8.0 18.0 0.00 0.00 0.00 53 1012.9
20240616142325 78 148 9.0 22.0 0.00 0.00 0.00 53 1012.9
20240616141857 78 360 10.0 17.0 0.00 0.00 0.00 53 1012.9
20240616141612 77 175 9.0 17.0 0.00 0.00 0.00 52 1011.7
20240616141331 78 161 9.0 16.0 0.00 0.00 0.00 52 1013.0
20240616140822 77 137 8.0 18.0 0.00 0.00 0.00 53 1013.1
20240616140328 77 181 10.0 17.0 0.00 0.00 0.00 53 1013.0
20240616140054 76 178 8.0 17.0 0.00 0.00 0.00 53 1011.8
20240616135825 76 190 8.0 17.0 0.00 0.00 0.00 53 1013.1
20240616135316 76 360 12.0 18.0 0.00 0.00 0.00 52 1013.2
20240616134821 76 202 6.0 19.0 0.00 0.00 0.00 53 1013.1
20240616134601 76 207 10.0 19.0 0.00 0.00 0.00 53 1011.9
20240616134315 76 173 9.0 17.0 0.00 0.00 0.00 52 1013.3
20240616133823 76 360 8.0 18.0 0.00 0.00 0.00 52 1013.2
20240616133333 75 169 9.0 17.0 0.00 0.00 0.00 52 1013.3
20240616133049 75 173 10.0 17.0 0.00 0.00 0.00 52 1012.1
20240616132834 75 163 8.0 16.0 0.00 0.00 0.00 52 1013.2
20240616132329 75 161 7.0 20.0 0.00 0.00 0.00 51 1013.2
20240616131817 75 360 9.0 20.0 0.00 0.00 0.00 51 1013.3
20240616131544 74 192 10.0 20.0 0.00 0.00 0.00 51 1012.1
20240616131321 75 360 11.0 19.0 0.00 0.00 0.00 51 1013.3
20240616130857 74 165 9.0 19.0 0.00 0.00 0.00 51 1013.3
20240616130329 74 360 7.0 17.0 0.00 0.00 0.00 51 1013.4
20240616130012 74 169 7.0 17.0 0.00 0.00 0.00 51 1012.3
20240616125814 74 192 8.0 17.0 0.00 0.00 0.00 51 1013.5
20240616125319 74 171 7.0 16.0 0.00 0.00 0.00 51 1013.6
20240616124814 73 185 8.0 19.0 0.00 0.00 0.00 51 1013.5
20240616124501 73 209 10.0 19.0 0.00 0.00 0.00 51 1012.4
20240616124315 73 360 8.0 16.0 0.00 0.00 0.00 51 1013.7
20240616123823 73 145 8.0 15.0 0.00 0.00 0.00 51 1013.7
20240616123325 73 161 7.0 13.0 0.00 0.00 0.00 51 1013.8
20240616123057 73 360 8.0 13.0 0.00 0.00 0.00 50 1012.6
20240616122816 73 161 7.0 16.0 0.00 0.00 0.00 51 1013.8
20240616122325 73 167 8.0 19.0 0.00 0.00 0.00 50 1013.9
20240616121830 73 157 8.0 19.0 0.00 0.00 0.00 50 1013.8
20240616121543 73 153 9.0 19.0 0.00 0.00 0.00 50 1012.6
20240616121331 73 190 7.0 20.0 0.00 0.00 0.00 50 1013.8
20240616120829 73 360 9.0 20.0 0.00 0.00 0.00 50 1013.8
20240616120333 73 360 8.0 20.0 0.00 0.00 0.00 50 1013.7
20240616120031 73 181 7.0 20.0 0.00 0.00 0.00 50 1012.5
20240616115816 73 175 8.0 20.0 0.00 0.00 0.00 50 1013.7
20240616115315 73 360 6.0 18.0 0.00 0.00 0.00 50 1013.8
20240616114845 73 138 9.0 18.0 0.00 0.00 0.00 50 1013.8
20240616114506 72 144 7.0 18.0 0.00 0.00 0.00 50 1012.5
20240616114329 73 184 8.0 18.0 0.00 0.00 0.00 50 1013.8